FW1310 Weather Reports


Display with metric or nautical units.
time (UTC)temp
F
wind
direction
speed
MPH
gust
MPH
rain 1hr
in
rain 24hr
in
rain mn
in
humidity
%
barometer
mb
20260502204004 75 61 2.0 5.0 0.00 0.17 0.00 36 1006.2
20260502203504 75 359 2.0 7.0 0.00 0.17 0.00 38 1006.4
20260502203004 75 153 2.0 7.0 0.00 0.17 0.00 37 1006.3
20260502202504 76 44 1.0 3.0 0.00 0.17 0.00 38 1006.2
20260502202005 75 36 0.0 6.0 0.00 0.17 0.00 39 1006.4
20260502201505 74 166 2.0 5.0 0.00 0.18 0.00 38 1006.4
20260502201004 75 152 2.0 5.0 0.00 0.18 0.00 38 1006.5
20260502200504 75 10 1.0 3.0 0.00 0.18 0.00 39 1006.4
20260502200004 76 82 1.0 7.0 0.00 0.18 0.00 39 1006.4
20260502195504 75 177 2.0 8.0 0.00 0.19 0.00 37 1006.4
20260502195004 75 348 3.0 8.0 0.00 0.19 0.00 38 1006.3
20260502194504 73 278 0.0 8.0 0.00 0.19 0.00 42 1006.5
20260502194004 74 188 3.0 8.0 0.00 0.20 0.00 37 1006.5
20260502193504 73 182 3.0 6.0 0.00 0.21 0.00 37 1006.5
20260502192505 74 82 2.0 5.0 0.00 0.23 0.00 41 1006.6
20260502192004 73 176 2.0 7.0 0.00 0.24 0.00 43 1006.5
20260502191005 74 192 2.0 7.0 0.00 0.24 0.00 42 1006.6
20260502190504 74 171 1.0 5.0 0.00 0.24 0.00 41 1006.5
20260502190005 73 187 3.0 5.0 0.00 0.24 0.00 44 1006.5
20260502185004 73 201 2.0 9.0 0.00 0.24 0.00 42 1006.6
20260502184504 72 233 1.0 3.0 0.00 0.24 0.00 45 1006.8
20260502183504 72 111 3.0 6.0 0.00 0.24 0.00 45 1006.8
20260502183006 72 317 1.0 7.0 0.00 0.25 0.00 48 1006.9
20260502182504 73 184 5.0 8.0 0.00 0.26 0.00 45 1007.1
20260502170504 69 161 3.0 6.0 0.00 0.49 0.00 55 1008.1
20260502164004 68 194 2.0 5.0 0.00 0.49 0.00 54 1008.1
20260502163504 67 38 1.0 3.0 0.00 0.49 0.00 57 1008.2
20260502163004 67 127 2.0 3.0 0.00 0.49 0.00 56 1008.3
20260502162504 67 121 1.0 3.0 0.00 0.49 0.00 56 1008.2
20260502162004 66 106 3.0 8.0 0.00 0.49 0.00 56 1008.3
20260502161504 65 141 2.0 6.0 0.00 0.49 0.00 58 1008.3
20260502161004 66 82 2.0 6.0 0.00 0.49 0.00 57 1008.5
20260502160505 66 185 1.0 3.0 0.00 0.49 0.00 57 1008.3
20260502151005 61 134 1.0 5.0 0.00 0.67 0.00 66 1008.3
20260502130504 50 89 2.0 5.0 0.00 1.03 0.00 91 1007.1
20260502123504 49 30 1.0 2.0 0.00 1.03 0.00 92 1006.7
20260502122504 48 92 1.0 2.0 0.00 1.03 0.00 92 1006.6
20260502122005 48 127 1.0 2.0 0.00 1.03 0.00 93 1006.5
20260502121504 48 68 1.0 2.0 0.00 1.03 0.00 93 1006.3
20260502115504 48 69 0.0 1.0 0.00 1.03 0.00 93 1005.9
20260502114004 48 71 0.0 2.0 0.00 1.05 0.00 93 1005.6
20260502113504 48 33 0.0 1.0 0.00 1.05 0.00 93 1005.6
20260502112004 48 100 0.0 2.0 0.00 1.10 0.00 93 1005.6
20260502111504 48 93 0.0 1.0 0.00 1.12 0.00 93 1005.5
20260502111004 48 107 0.0 1.0 0.00 1.14 0.00 93 1005.4
20260502110004 48 96 1.0 3.0 0.00 1.16 0.00 92 1005.3
20260502105004 48 86 0.0 2.0 0.00 1.18 0.00 92 1004.9
20260502104504 48 96 0.0 1.0 0.00 1.19 0.00 92 1004.9
20260502104004 49 177 0.0 0.0 0.00 1.20 0.00 91 1004.6
20260502103504 49 129 0.0 1.0 0.00 1.21 0.00 91 1004.6
20260502103004 49 127 0.0 3.0 0.00 1.23 0.00 91 1004.5
20260502102004 49 138 1.0 5.0 0.00 1.26 0.00 91 1004.2
20260502101504 49 91 1.0 5.0 0.00 1.26 0.00 91 1004.3
20260502101004 49 95 1.0 2.0 0.00 1.26 0.00 91 1004.3
20260502100504 49 103 0.0 6.0 0.00 1.26 0.00 91 1004.2
20260502091505 49 131 1.0 2.0 0.00 1.28 0.00 91 1004.1
20260502090504 49 80 2.0 3.0 0.00 1.28 0.00 91 1004.0
20260502071504 50 109 1.0 5.0 0.00 1.34 0.00 94 1004.0
20260502071004 50 103 1.0 3.0 0.00 1.34 0.00 94 1003.8
20260502070504 50 124 0.0 5.0 0.00 1.34 0.00 94 1004.0
20260502070005 50 129 1.0 5.0 0.00 1.34 0.00 94 1004.1
20260502065504 50 171 0.0 2.0 0.00 1.34 0.00 94 1004.1
20260502064505 50 140 1.0 3.0 0.00 1.34 0.00 94 1004.0
20260502064004 50 158 0.0 1.0 0.00 1.34 0.00 94 1003.8
20260502063504 50 98 0.0 1.0 0.00 1.34 0.00 94 1003.9
20260502063005 51 111 0.0 5.0 0.00 1.34 0.00 94 1003.8
20260502062504 51 108 1.0 3.0 0.00 1.34 0.00 94 1003.8
20260502062004 51 140 1.0 2.0 0.00 1.34 0.00 94 1004.0
20260502061504 51 102 1.0 2.0 0.00 1.34 0.00 94 1004.0
20260502061005 51 132 0.0 1.0 0.00 1.34 0.00 94 1003.8
20260502060504 51 125 0.0 0.0 0.00 1.34 0.00 94 1003.8
20260502060005 51 98 0.0 2.0 0.00 1.34 0.00 94 1003.8
20260502055504 51 76 1.0 2.0 0.00 1.35 0.00 94 1004.0
20260502055004 51 74 1.0 3.0 0.00 1.35 0.00 94 1003.9
20260502054505 51 90 2.0 5.0 0.00 1.35 0.00 93 1004.0
20260502054004 51 119 1.0 2.0 0.00 1.35 0.00 93 1004.1
20260502053006 51 78 1.0 3.0 0.00 1.35 0.00 93 1003.9
20260502052505 52 48 0.0 1.0 0.00 1.35 0.00 93 1003.9
20260502051505 52 112 1.0 2.0 0.00 1.35 0.00 93 1003.8
20260502050505 52 95 0.0 1.0 0.00 1.36 0.00 92 1003.8
20260502045505 52 108 1.0 3.0 0.00 1.37 1.36 92 1003.8
20260502045004 52 100 1.0 3.0 0.00 1.38 1.36 92 1003.6
20260502044504 52 142 1.0 3.0 0.00 1.38 1.36 92 1003.5
20260502044004 52 122 1.0 3.0 0.00 1.38 1.36 92 1003.7
20260502043504 52 117 1.0 3.0 0.00 1.38 1.36 92 1003.6
20260502043004 53 80 1.0 2.0 0.00 1.38 1.36 92 1003.7
20260502042504 53 145 1.0 3.0 0.00 1.38 1.36 92 1003.7
20260502042004 53 108 1.0 2.0 0.00 1.38 1.36 92 1003.6
20260502041505 53 115 1.0 2.0 0.00 1.38 1.36 92 1003.5
20260502041004 53 106 1.0 2.0 0.00 1.38 1.36 93 1003.3
20260502040504 53 181 0.0 1.0 0.00 1.38 1.36 93 1003.5
20260502040005 53 127 0.0 2.0 0.00 1.38 1.36 93 1003.6
20260502035004 53 163 1.0 2.0 0.00 1.38 1.36 93 1003.7
20260502034505 53 102 1.0 2.0 0.00 1.38 1.36 93 1003.7
20260502034004 53 141 2.0 5.0 0.00 1.38 1.36 93 1003.7
20260502033504 53 130 1.0 2.0 0.00 1.39 1.36 93 1003.7
20260502033004 53 91 1.0 3.0 0.00 1.41 1.36 93 1003.6
20260502032504 53 150 1.0 6.0 0.00 1.42 1.36 93 1003.5
20260502032004 53 135 0.0 3.0 0.00 1.43 1.36 92 1003.6
20260502031505 53 120 0.0 3.0 0.00 1.44 1.36 92 1003.6
20260502031005 53 88 2.0 3.0 0.00 1.46 1.36 92 1003.6
20260502030504 53 96 0.0 1.0 0.00 1.47 1.36 92 1003.5
20260502025504 53 106 1.0 5.0 0.00 1.48 1.36 91 1003.4
20260502025004 53 268 0.0 1.0 0.00 1.49 1.36 91 1003.3
20260502024505 53 93 1.0 1.0 0.00 1.54 1.36 91 1003.3
20260502024004 53 40 1.0 3.0 0.00 1.54 1.36 91 1003.2
20260502023504 53 17 1.0 6.0 0.00 1.54 1.36 91 1003.1
20260502023004 53 153 2.0 3.0 0.00 1.54 1.36 91 1003.0
20260502022504 53 123 1.0 2.0 0.00 1.54 1.36 92 1002.8
20260502022004 53 108 1.0 5.0 0.00 1.54 1.36 92 1002.8
20260502021505 53 81 1.0 3.0 0.00 1.54 1.36 92 1002.9
20260502021004 53 108 1.0 2.0 0.00 1.54 1.36 92 1002.7
20260502020505 53 105 1.0 6.0 0.00 1.54 1.36 92 1002.6
20260502020006 53 183 1.0 2.0 0.00 1.54 1.36 92 1002.5
20260502015504 53 98 0.0 5.0 0.00 1.54 1.36 92 1002.1
20260502014505 53 160 2.0 5.0 0.00 1.54 1.36 92 1002.0
20260502014004 53 98 1.0 2.0 0.00 1.54 1.36 92 1002.0
20260502013505 53 139 0.0 2.0 0.00 1.54 1.36 92 1002.1
20260502013005 53 152 2.0 5.0 0.00 1.54 1.36 92 1002.0
20260502012505 53 186 2.0 3.0 0.00 1.54 1.36 92 1001.8
20260502012004 53 224 2.0 7.0 0.00 1.54 1.36 91 1001.7
20260502011506 53 159 2.0 5.0 0.00 1.54 1.36 91 1001.6
20260502011005 54 198 2.0 7.0 0.00 1.54 1.36 91 1001.6
20260502010504 53 184 5.0 8.0 0.00 1.54 1.36 91 1001.4
20260502010006 53 200 3.0 7.0 0.00 1.54 1.36 91 1001.2
20260502005504 53 169 3.0 7.0 0.00 1.54 1.36 91 1001.3
20260502004506 53 226 3.0 7.0 0.00 1.54 1.36 91 1001.1
20260502003504 53 149 5.0 8.0 0.00 1.54 1.36 91 1000.9
20260502003006 53 102 5.0 8.0 0.00 1.54 1.36 91 1000.8
20260502002505 53 156 2.0 5.0 0.00 1.54 1.36 92 1000.6
20260502001506 53 179 5.0 9.0 0.00 1.54 1.36 92 1000.7
20260502001005 53 181 2.0 7.0 0.00 1.54 1.36 93 1000.5
20260502000505 53 94 3.0 7.0 0.00 1.54 1.36 93 1000.5
20260502000005 53 134 3.0 5.0 0.00 1.54 1.36 93 1000.5
20260501235505 53 191 3.0 7.0 0.00 1.54 1.36 93 1000.6
20260501235004 53 160 4.0 7.0 0.00 1.54 1.36 93 1000.6
20260501234504 53 233 2.0 8.0 0.00 1.54 1.36 93 1000.6
20260501234005 53 73 2.0 6.0 0.00 1.54 1.36 93 1000.6
20260501233504 53 117 2.0 5.0 0.00 1.54 1.36 93 1000.6
20260501233005 53 106 2.0 6.0 0.01 1.54 1.36 93 1000.5
20260501232504 53 90 5.0 8.0 0.01 1.54 1.36 94 1000.6
20260501232004 52 214 6.0 13.0 0.01 1.54 1.36 94 1000.4
20260501231005 52 175 6.0 12.0 0.02 1.56 1.36 95 1000.1
20260501230504 52 142 4.0 9.0 0.03 1.58 1.36 96 1000.0
20260501230004 54 95 3.0 12.0 0.06 1.60 1.36 96 1000.0
20260501225504 54 71 3.0 6.0 0.07 1.63 1.36 96 1000.0
20260501225004 54 163 3.0 6.0 0.09 1.64 1.36 96 999.9
20260501224505 54 141 4.0 9.0 0.11 1.64 1.36 96 999.8
20260501223504 54 107 3.0 7.0 0.14 1.64 1.36 96 999.9
20260501223005 54 260 2.0 9.0 0.16 1.63 1.35 96 1000.0
20260501222004 54 66 2.0 7.0 0.16 1.63 1.35 96 1000.0
20260501221504 54 347 2.0 7.0 0.15 1.62 1.34 96 999.9
20260501221004 54 107 4.0 8.0 0.15 1.63 1.34 95 999.9
20260501220504 54 101 3.0 8.0 0.14 1.62 1.33 95 1000.2
20260501220004 55 172 4.0 8.0 0.11 1.60 1.30 95 1000.2
20260501215004 55 75 1.0 5.0 0.08 1.57 1.27 95 1000.1
20260501214505 55 178 3.0 7.0 0.06 1.55 1.25 95 1000.0
20260501214005 55 79 3.0 7.0 0.04 1.53 1.23 95 999.9
20260501213005 55 132 3.0 6.0 0.00 1.49 1.19 94 999.5
20260501212504 55 129 3.0 7.0 0.00 1.49 1.19 94 999.6
20260501212004 55 60 2.0 8.0 0.00 1.49 1.19 94 999.3
20260501211504 55 90 5.0 9.0 0.01 1.49 1.19 95 999.1
20260501211004 55 124 2.0 6.0 0.01 1.49 1.19 95 998.9
20260501210505 55 81 5.0 9.0 0.01 1.49 1.19 95 998.7
20260501210005 55 43 4.0 9.0 0.01 1.49 1.19 95 998.2
20260501205004 55 101 5.0 13.0 0.02 1.49 1.19 95 998.3
20260501204505 55 126 5.0 7.0 0.02 1.49 1.19 95 998.1